Weather History for Morgantown, WV

Change the Weather History Date:

Monday, December 31, 2012

  Actual Average Record
Temperature  
Mean Temperature 29 °F 32 °F  
Max Temperature 35 °F 39 °F 71 °F (1972)
Min Temperature 22 °F 24 °F 3 °F (1983)
Degree Days  
Heating Degree Days 36 33  
Month to date heating degree days 737 937  
Since 1 July heating degree days 1858 1984  
Cooling Degree Days 0 0  
Month to date cooling degree days 0 0  
Year to date cooling degree days 1141 814  
Moisture  
Dew Point 25 °F    
Average Humidity 74    
Maximum Humidity 92    
Minimum Humidity 56    
Precipitation  
Precipitation 0.03 in 0.08 in 0.53 in (1970)
Month to date precipitation 5.25 2.91  
Year to date precipitation 35.72 41.83  
Sea Level Pressure  
Sea Level Pressure 30.16 in    
Wind  
Wind Speed 8 mph (SSW)    
Max Wind Speed 18 mph    
Max Gust Speed 26 mph    
Visibility 7 miles    
Events Snow    
T = Trace of Precipitation, MM = Missing Value Source: NWS Daily Summary

Daily Weather History Graph

Daily Weather History Graph

Search for Another Location

Airport:

Trip Planner

Search our weather history database for the weather conditions in past years. The results will help you decide how hot, cold, wet, or windy it might be!

Date:

Astronomy

Dec. 31, 2012 Rise Set
Actual Time 7:40 AM EST 5:05 PM EST
Civil Twilight 7:10 AM EST 5:35 PM EST
Nautical Twilight 6:36 AM EST 6:09 PM EST
Astronomical Twilight 6:03 AM EST 6:42 PM EST
Moon 8:33 PM EST (12/31) 9:21 AM EST (12/31)
Length of Visible Light 10h 25m
Length of Day
9h 25m
Waning Gibbous, 90% of the Moon is Illuminated
Dec 31
Waning Gibbous
Jan 4
Last Quarter
Jan 11
New
Jan 18
First Quarter
Jan 26
Full

Hourly Weather History & Observations

Time (EST) Temp. Windchill Dew Point Humidity Pressure Visibility Wind Dir Wind Speed Gust Speed Precip Events Conditions
12:53 AM 23.0 °F 18.4 °F 18.0 °F 81% 30.38 in 10.0 mi SSW 3.5 mph - N/A   Clear
1:53 AM 23.0 °F 18.4 °F 18.0 °F 81% 30.36 in 10.0 mi SSW 3.5 mph - N/A   Clear
2:53 AM 24.1 °F 17.0 °F 19.0 °F 81% 30.35 in 10.0 mi SSW 5.8 mph - N/A   Clear
3:53 AM 24.1 °F 16.0 °F 19.0 °F 81% 30.32 in 10.0 mi SSW 6.9 mph - N/A   Clear
4:53 AM 25.0 °F 18.1 °F 19.0 °F 78% 30.30 in 10.0 mi SSW 5.8 mph - N/A   Clear
5:53 AM 25.0 °F 18.1 °F 19.0 °F 78% 30.30 in 10.0 mi SSW 5.8 mph - N/A   Clear
6:53 AM 26.1 °F 17.6 °F 19.0 °F 75% 30.29 in 10.0 mi SSW 8.1 mph - N/A   Clear
7:53 AM 27.0 °F 19.5 °F 19.0 °F 72% 30.29 in 10.0 mi SSW 6.9 mph - N/A   Clear
8:53 AM 28.9 °F 21.9 °F 19.9 °F 69% 30.29 in 10.0 mi SW 6.9 mph - N/A   Clear
9:53 AM 30.0 °F 22.4 °F 21.0 °F 69% 30.28 in 10.0 mi SSW 8.1 mph - N/A   Clear
10:53 AM 32.0 °F 24.8 °F 21.0 °F 64% 30.25 in 10.0 mi South 8.1 mph - 0.01 in   Clear
11:53 AM 33.1 °F 23.9 °F 21.0 °F 61% 30.22 in 10.0 mi SSW 12.7 mph - 0.01 in   Clear
12:53 PM 34.0 °F 26.0 °F 21.0 °F 59% 30.18 in 10.0 mi SSW 10.4 mph 17.3 mph N/A   Overcast
1:53 PM 35.1 °F 26.4 °F 21.9 °F 59% 30.17 in 7.0 mi SSW 12.7 mph 26.5 mph N/A   Overcast
2:05 PM 33.8 °F 24.8 °F 26.6 °F 75% 30.12 in 2.5 mi SW 12.7 mph 23.0 mph 0.00 in Snow Light Snow
2:14 PM 33.8 °F 28.6 °F 26.6 °F 75% 30.13 in 5.0 mi SW 5.8 mph 23.0 mph 0.00 in   Haze
2:39 PM 33.8 °F 26.4 °F 26.6 °F 75% 30.12 in 2.5 mi SSW 9.2 mph - 0.00 in Snow Light Snow
2:53 PM 32.0 °F 22.5 °F 28.0 °F 85% 30.16 in 1.0 mi SW 12.7 mph 23.0 mph 0.00 in Snow Light Snow
3:00 PM 30.2 °F 21.3 °F 28.4 °F 93% 30.12 in 0.8 mi SSW 10.4 mph - 0.00 in Snow Light Snow
3:05 PM 30.2 °F 23.4 °F 28.4 °F 93% 30.12 in 1.0 mi Variable 6.9 mph - 0.00 in Snow Light Snow
3:15 PM 30.2 °F 22.6 °F 28.4 °F 93% 30.12 in 3.0 mi South 8.1 mph - 0.00 in Snow Light Snow
3:25 PM 30.2 °F 22.6 °F 28.4 °F 93% 30.11 in 2.0 mi South 8.1 mph - 0.00 in Snow Light Snow
3:29 PM 30.2 °F 22.6 °F 28.4 °F 93% 30.11 in 1.2 mi South 8.1 mph - 0.00 in Snow Light Snow
3:44 PM 30.2 °F 22.6 °F 28.4 °F 93% 30.11 in 2.0 mi South 8.1 mph - 0.00 in Snow Light Snow
3:53 PM 30.9 °F 24.3 °F 28.9 °F 92% 30.15 in 1.0 mi South 6.9 mph - 0.00 in Snow Light Snow
4:13 PM 30.2 °F 23.4 °F 28.4 °F 93% 30.10 in 2.5 mi South 6.9 mph - 0.00 in Snow Light Snow
4:22 PM 30.2 °F 24.3 °F 28.4 °F 93% 30.09 in 4.0 mi SSW 5.8 mph - 0.00 in   Overcast
4:36 PM 30.2 °F 24.3 °F 28.4 °F 93% 30.08 in 2.0 mi South 5.8 mph - 0.00 in Snow Light Snow
4:53 PM 32.0 °F 26.4 °F 28.9 °F 88% 30.11 in 3.0 mi South 5.8 mph - 0.00 in Snow Light Snow
5:53 PM 32.0 °F 24.8 °F 28.9 °F 88% 30.14 in 7.0 mi SSW 8.1 mph - 0.00 in Snow Light Snow
6:53 PM 32.0 °F 26.4 °F 28.0 °F 85% 30.12 in 9.0 mi SSW 5.8 mph - 0.00 in   Overcast
7:53 PM 33.1 °F 26.9 °F 25.0 °F 72% 30.12 in 10.0 mi SW 6.9 mph - N/A   Overcast
8:09 PM 33.8 °F 26.4 °F 24.8 °F 70% 30.08 in 10.0 mi SW 9.2 mph - 0.00 in Snow Light Snow
8:23 PM 33.8 °F 23.5 °F 24.8 °F 70% 30.07 in 9.0 mi SSW 16.1 mph 21.9 mph 0.00 in Snow Light Snow
8:30 PM 33.8 °F 26.4 °F 24.8 °F 70% 30.08 in 9.0 mi SSW 9.2 mph 21.9 mph 0.00 in Snow Light Snow
8:53 PM 33.1 °F 26.1 °F 25.0 °F 72% 30.11 in 9.0 mi SW 8.1 mph 18.4 mph 0.00 in Snow Light Snow
9:15 PM 33.8 °F 24.8 °F 24.8 °F 70% 30.07 in 9.0 mi SW 12.7 mph 20.7 mph 0.00 in Snow Light Snow
9:53 PM 34.0 °F 28.8 °F 25.0 °F 70% 30.09 in 9.0 mi SW 5.8 mph - 0.00 in Snow Light Snow
10:14 PM 33.8 °F 28.6 °F 24.8 °F 70% 30.05 in 9.0 mi SSW 5.8 mph - 0.00 in Snow Light Snow
10:27 PM 33.8 °F 27.7 °F 24.8 °F 70% 30.05 in 9.0 mi SSW 6.9 mph - 0.00 in Snow Light Snow
10:53 PM 34.0 °F 28.0 °F 25.0 °F 70% 30.08 in 9.0 mi SW 6.9 mph - 0.00 in   Overcast
11:35 PM 35.6 °F 31.7 °F 26.6 °F 70% 30.04 in 10.0 mi SW 4.6 mph - 0.01 in   Overcast
11:53 PM 35.1 °F 28.6 °F 25.0 °F 67% 30.07 in 10.0 mi SW 8.1 mph - 0.01 in   Overcast